{"data":{"norad_id":37816,"epoch":"2026-09-20T03:11:58.314048Z","epoch_age_seconds":53596,"freshness":"FRESH","line1":"1 37816U 11051A   26263.13331382 -.00000064  00000+0  00000+0 0  9995","line2":"2 37816   0.0654   5.2511 0006071 171.2525 223.2169  1.00272800 54827","mean_motion":1.002728,"eccentricity":0.0006071,"inclination_deg":0.0654,"raan_deg":5.2511,"arg_perigee_deg":171.2525,"mean_anomaly_deg":223.2169,"bstar":0,"rev_number":5482,"period_min":1436.082367302,"perigee_km":35760.712386215,"apogee_km":35811.908458275,"semimajor_km":42164.447422245,"source":"CELESTRAK","updated_at":"2026-09-20T09:00:35.170589Z"}}